User: anonymous   Login
Location: Unspecified
(0.0000°N, 0.0000°E)
Time: 13:47:26
(UTC+00:00)
Language:

OBJECT BV - Orbit

View from above orbital plane
View from above orbital plane
View from above satellite
View from above satellite

Ground track
Ground track

The orbit data is extracted from the following two-line orbital elements,

1 42015U 17008BV  17114.95141264 +.00003922 +00000-0 +17144-3 0  9990
2 42015 097.5001 176.4945 0008046 056.2187 303.9815 15.22657174010245
Epoch (UTC): 24 April 2017 22:50:02
Eccentricity: 0.0008046
inclination: 97.5001°
perigee height: 492 km
apogee height: 503 km
right ascension of ascending node: 176.4945°
argument of perigee: 56.2187°
revolutions per day: 15.22657174
mean anomaly at epoch: 303.9815°
orbit number at epoch: 1024

The dashed part of the orbit path shows where the satellite is in the earth's shadow,  

DLR